Location: Three Guys Observatory
(38.6418°N, 87.1521°W)
Time: 23:08:14
(UTC-05:00)

ISS - Visible Passes

Search period start: 24 November 2017 00:00
Search period end: 04 December 2017 00:00
Orbit: 401 x 407 km, 51.6° (Epoch: 25 November)

Date Brightness Start Highest point End Pass type
(mag) Time Alt. Az. Time Alt. Az. Time Alt. Az.
25 Nov -2.3 19:23:43 10° SSW 19:25:36 29° SSW 19:25:36 29° SSW visible
26 Nov -2.4 18:31:56 10° S 18:34:39 24° SE 18:35:44 20° ESE visible
26 Nov -0.4 20:08:00 10° W 20:08:24 13° W 20:08:24 13° W visible
27 Nov -3.5 19:15:19 10° WSW 19:18:26 61° NW 19:18:26 61° NW visible
28 Nov -3.8 18:22:57 10° SW 18:26:11 64° SE 18:28:23 19° ENE visible
28 Nov -0.6 20:00:30 10° WNW 20:01:02 13° WNW 20:01:02 13° WNW visible
29 Nov -2.3 19:07:26 10° W 19:10:20 28° NNW 19:10:53 27° N visible
30 Nov -3.2 18:14:37 10° WSW 18:17:49 49° NW 18:20:41 12° NE visible
01 Dec -1.6 18:59:58 10° WNW 19:02:11 17° NNW 19:03:03 15° N visible
02 Dec -2.0 18:06:47 10° W 18:09:32 24° NNW 18:12:18 10° NNE visible
03 Dec -1.2 18:52:56 10° NW 18:54:08 11° NNW 18:54:59 11° N visible
